Regional Weather Roundup
Issued by NWS

Home | Current Version | Previous Version | Text Only | Print | Product List | Glossary Off
Versions: 1 2 3 4 5 6 7 8 9 10 11 12 13 14 15 16 17 18 19 20 21 22 23 24 25 26 27 28 29 30 31 32 33 34 35 36 37 38 39 40 41 42 43 44 45 46 47 48 49 50

000
ASUS44 KMEG 262200
RWRTN
TENNESSEE HOURLY STATE WEATHER ROUNDUP
NATIONAL WEATHER SERVICE MEMPHIS TN
400 PM CST SUN FEB 26 2017

TNZ002-004-019-021-049-052-054-088>092-262300-
WEST TENNESSEE

CITY           SKY/WX    TMP DP  RH WIND       PRES   REMARKS
MEMPHIS INTL   PTSUNNY   60  21  22 S10       30.06F
NWS MEMPHIS      N/A     62 N/A N/A MISG        N/A
JACKSON        MOSUNNY   58  18  21 SE8       30.09F
UNION CITY     MOSUNNY   55   7  14 CALM      30.10R
PARIS          MOSUNNY   55  16  21 S9        30.10S
$$

TNZ008-025-027-028-033-062-065-066-262300-
NORTH MIDDLE TENNESSEE

CITY           SKY/WX    TMP DP  RH WIND       PRES   REMARKS
NASHVILLE      PTSUNNY   54  16  22 S8        30.15S
CLARKSVILLE    SUNNY     55  17  22 S7G17     30.11F
SMYRNA         SUNNY     54  19  25 S6        30.16S
CROSSVILLE     SUNNY     49  16  26 S7        30.15F
$$

TNZ061-075-076-078-094-096-097-262300-
SOUTH MIDDLE TENNESSEE

CITY           SKY/WX    TMP DP  RH WIND       PRES   REMARKS
TULLAHOMA      SUNNY     55  12  18 SW8       30.15S
WINCHESTER     SUNNY     55  19  24 SE12      30.15R
MCMINNVILLE    SUNNY     57  19  23 SW7       30.14S
COLUMBIA       SUNNY     57  19  23 S7        30.11F
SHELBYVILLE    SUNNY     59  21  23 S8        30.16R
$$

TNZ017-018-042-046-047-262300-
NORTHEAST TENNESSEE

CITY           SKY/WX    TMP DP  RH WIND       PRES   REMARKS
TRI CITIES     MOSUNNY   48  16  27 CALM      30.19S
$$

TNZ012-013-036-069-073-074-262300-
CENTRAL EAST TENNESSEE

CITY           SKY/WX    TMP DP  RH WIND       PRES   REMARKS
KNOXVILLE      MOSUNNY   52  11  19 VRB3      30.18F
OAK RIDGE      SUNNY     52  12  20 S5        30.20F
GATLINBURG     SUNNY     50  12  22 VRB5      30.18S
$$

TNZ083-085-099-262300-
SOUTHEAST TENNESSEE

CITY           SKY/WX    TMP DP  RH WIND       PRES   REMARKS
CHATTANOOGA    MOSUNNY   56  16  20 W3        30.18F
$$

SKY/WX REPORTED AS FAIR MEANS FEW OR NO CLOUDS BELOW
12 THOUSAND FEET.




USA.gov is the U.S. government's official web portal to all federal, state and local government web resources and services.